Theta_e
317 317 316 316 316 316 317 317 317 316 316 316 315 316 316 316 316 317 317 317 317 317 317 317 318 318 318 318 317 317 317 317 317 316 315 315 314 314 313 312 312 313 313 314 314 315 316 317 317 316 316 316 316 315 315 314 314 315 315 315 315 314 313 313 314 315 315 316 316 316 316 315 315 314 314 313 312 312 311 310 310 309 309 309 309 308
317 317 316 316 316 316 316 316 316 317 316 316 316 316 316 316 316 317 317 317 317 317 317 317 318 318 318 317 317 317 317 317 317 316 315 314 313 313 312 312 312 313 313 313 314 315 315 315 315 315 315 314 314 314 314 313 313 313 313 314 314 314 314 314 315 315 316 316 316 316 315 314 314 313 313 312 311 311 310 310 309 309 309 309 308 308
316 316 316 316 316 316 316 316 316 316 316 316 316 316 316 316 316 316 316 316 316 316 317 317 317 318 317 317 317 317 317 317 317 317 316 314 313 313 312 312 312 313 313 313 313 314 314 314 313 313 313 313 313 313 313 312 312 312 312 312 313 314 315 315 316 316 316 316 316 315 314 313 313 312 311 311 310 310 309 309 309 309 308 308 308 308
316 316 316 316 316 316 316 316 316 316 316 316 316 316 316 316 316 316 316 316 316 316 316 317 317 317 317 317 317 317 317 317 317 317 316 315 313 312 312 312 312 313 313 313 313 313 313 313 313 312 312 312 312 312 312 312 311 311 311 312 313 314 315 315 315 315 315 315 314 313 313 312 312 311 310 310 309 309 309 309 309 308 308 308 308 307
315 315 316 316 316 316 316 316 316 316 316 316 316 316 316 315 316 315 315 315 315 316 316 316 316 317 317 317 317 317 317 317 317 317 316 314 313 312 312 312 312 312 312 313 313 313 312 312 312 312 312 312 312 312 311 311 311 311 311 312 313 314 314 314 314 314 314 313 313 312 311 311 311 310 310 309 309 309 309 309 309 308 308 308 307 307
315 315 315 315 315 315 315 315 315 315 316 315 315 315 315 315 315 315 315 315 315 315 316 316 316 316 316 316 316 316 316 316 316 316 316 314 312 311 311 311 312 312 312 312 312 312 312 312 312 311 311 311 312 311 311 310 310 311 311 312 313 313 313 313 313 313 312 312 312 311 311 310 310 310 309 309 309 309 308 308 308 308 308 307 306 306
315 315 315 315 314 314 314 314 315 315 314 314 314 314 314 314 314 314 315 315 315 315 315 315 315 316 316 316 316 316 315 315 316 316 315 313 312 311 311 311 311 311 312 312 312 312 312 311 311 311 311 311 311 311 310 310 310 310 311 311 312 312 312 312 312 312 311 311 311 310 310 310 310 309 309 309 308 308 308 307 307 307 307 306 305 305
314 314 314 314 313 313 313 313 314 314 313 313 312 312 312 312 313 313 314 314 314 314 314 314 315 315 315 315 315 315 315 315 315 315 315 313 311 311 311 311 311 311 311 311 311 311 311 311 311 311 310 310 310 310 310 310 309 309 310 310 311 311 311 311 311 311 311 310 310 310 309 309 309 309 308 308 308 307 307 306 306 306 305 305 304 304
313 313 312 312 312 312 312 312 312 312 312 312 311 310 310 310 311 311 312 312 313 313 313 313 313 314 314 314 314 314 314 314 314 314 314 313 311 311 311 311 311 311 311 311 311 311 311 311 310 310 310 309 309 309 309 309 309 309 309 309 310 310 310 310 310 310 310 309 309 309 309 309 308 308 308 308 307 307 306 305 305 304 304 304 303 303
312 312 311 311 311 311 311 310 310 311 311 311 310 310 309 309 309 309 309 310 311 311 312 312 312 312 313 313 313 313 313 314 314 314 313 313 312 311 311 311 311 311 311 311 311 311 311 310 310 309 309 309 309 308 309 308 308 308 308 308 309 309 309 310 310 309 309 309 308 308 308 308 308 308 308 308 307 306 306 305 304 304 303 303 302 302
311 311 311 310 310 310 310 310 310 310 310 310 309 309 309 309 309 308 307 308 308 308 309 310 310 311 311 311 312 312 312 312 312 312 312 312 312 311 311 311 311 311 311 311 311 311 310 310 309 309 308 308 308 308 308 308 308 308 308 308 308 308 308 309 309 309 309 308 308 308 308 308 308 307 307 307 307 306 305 305 304 304 303 302 302 302
310 310 310 310 309 309 309 309 309 309 309 308 308 307 307 308 308 308 308 307 307 307 307 307 309 310 310 310 311 311 311 311 311 311 311 311 311 311 311 310 311 311 311 311 311 311 310 309 309 308 308 307 307 307 307 307 307 307 307 307 307 308 308 308 309 309 308 308 307 307 307 307 307 307 306 306 306 305 304 304 303 303 303 303 302 302
309 309 309 309 309 308 308 307 307 307 307 307 307 307 307 307 307 307 307 307 307 307 306 306 307 308 309 309 310 310 310 310 310 310 310 310 310 310 310 310 310 311 311 310 310 309 309 309 308 307 307 307 307 307 307 307 307 306 307 307 307 307 307 308 308 308 308 307 307 306 306 306 306 305 305 305 304 304 303 303 303 303 302 302 302 302
308 308 308 308 308 308 307 306 305 305 306 306 307 307 307 307 306 306 306 306 306 306 306 306 305 306 307 308 308 309 309 309 309 309 309 309 309 309 310 310 310 310 310 309 309 308 308 308 307 306 306 306 306 306 306 306 306 306 306 306 306 306 307 307 307 307 307 306 306 305 305 305 304 304 304 304 303 303 303 303 302 302 302 302 302 301
307 307 307 307 307 307 307 306 305 305 306 306 306 306 306 306 306 305 305 305 305 305 305 305 304 304 305 306 307 308 308 308 307 307 307 308 308 309 309 309 310 310 309 309 308 308 307 307 306 306 305 305 306 306 306 306 305 305 305 305 306 306 306 306 306 306 306 305 305 304 304 304 303 303 303 303 303 303 302 302 302 302 301 301 300 300
307 306 306 306 306 307 306 306 305 305 306 306 306 305 305 305 305 305 304 304 304 304 303 302 302 303 303 304 305 307 307 307 306 306 306 307 308 308 309 309 309 309 308 308 307 307 306 306 306 305 305 305 305 306 305 305 305 305 305 305 305 305 305 306 305 305 305 304 304 304 303 303 303 303 303 303 302 302 302 301 301 300 299 298 298 297
306 306 306 306 306 306 306 306 305 305 305 305 305 305 305 305 304 304 304 304 303 303 302 302 302 302 302 303 303 305 306 306 305 305 306 306 307 307 308 308 308 308 307 307 307 306 306 305 305 305 305 305 305 305 305 305 304 304 304 304 304 304 305 305 305 304 304 303 303 303 303 303 302 302 302 302 301 300 300 299 298 297 296 295 294 293
306 305 305 305 306 306 305 305 305 305 305 305 304 304 304 304 304 304 304 303 303 302 302 302 302 302 302 302 302 303 305 305 305 305 305 305 306 306 307 307 308 307 307 306 306 305 305 305 305 305 305 305 305 305 305 304 304 304 303 303 303 303 304 304 304 304 303 303 302 302 302 301 301 300 300 299 298 297 296 295 294 293 292 291 291 291
306 305 305 305 305 305 305 305 304 304 304 304 304 304 304 304 304 303 303 303 303 302 302 302 302 302 303 303 303 303 304 305 305 304 304 304 304 305 305 306 306 306 306 305 305 305 305 305 304 304 304 304 304 304 304 304 303 303 303 302 302 302 303 303 303 302 302 301 301 300 300 299 299 298 297 296 295 294 293 292 291 290 289 289 290 291
306 305 305 305 305 305 305 304 304 304 304 304 304 304 303 303 303 303 303 303 302 302 302 302 302 302 302 303 303 303 303 304 304 304 304 303 303 304 304 305 305 305 304 304 304 304 304 304 304 304 304 304 304 304 303 303 302 302 302 301 301 301 301 301 301 301 300 299 299 298 298 297 296 295 294 293 292 291 290 289 288 288 288 289 291 293
306 306 306 305 305 305 304 304 304 304 304 304 304 303 303 303 303 302 302 302 302 302 302 302 301 302 302 302 303 303 303 304 304 304 304 303 302 302 303 303 304 303 303 303 303 303 303 303 303 303 303 303 303 303 303 302 302 301 301 300 300 299 299 299 298 298 297 297 296 295 295 294 293 292 291 290 290 289 288 288 288 288 289 291 293 294
306 305 306 305 305 305 305 304 304 304 304 304 304 303 303 303 302 302 302 302 301 301 301 302 302 302 302 302 302 303 303 304 304 303 303 302 301 301 302 302 302 302 302 301 301 302 302 302 303 303 302 302 302 302 302 301 301 300 299 298 298 297 297 296 296 295 294 293 293 292 291 290 290 289 289 289 288 288 288 288 289 290 291 293 294 294
306 306 305 305 305 305 305 305 304 304 304 304 304 303 303 303 302 302 302 302 301 301 301 302 302 302 302 302 302 302 303 303 304 304 303 302 301 300 301 301 301 301 301 300 300 301 301 301 302 302 301 301 301 301 301 300 299 298 297 297 296 295 294 294 293 292 291 291 290 289 289 288 288 288 288 288 288 288 288 289 290 292 293 294 294 294
306 306 306 305 305 305 305 305 304 304 304 304 304 303 303 303 303 303 302 302 302 301 301 301 301 301 301 301 302 302 302 303 303 303 303 303 302 300 300 300 300 300 299 299 299 300 300 300 300 300 300 300 300 300 300 299 298 297 296 295 295 294 294 293 292 291 290 289 289 288 288 288 288 288 289 289 289 289 289 290 291 292 293 294 294 294
304 305 305 305 305 305 305 305 305 304 304 304 304 303 303 303 303 303 303 302 302 301 301 300 299 299 299 300 301 301 301 302 303 303 303 303 302 300 299 299 299 299 298 298 298 299 299 299 299 299 298 298 299 299 299 298 297 296 296 295 295 294 294 293 293 291 290 289 288 288 288 288 289 289 289 289 289 290 290 291 292 293 293 293 294 294
304 304 304 304 305 305 305 305 305 305 304 304 304 303 303 303 303 302 302 301 301 300 299 298 298 298 298 298 298 299 300 301 302 303 303 303 300 297 298 298 298 298 296 296 297 297 298 297 297 297 297 297 297 298 298 298 297 296 296 295 295 295 294 294 293 291 290 289 288 288 288 289 289 290 290 290 290 290 290 291 292 292 293 293 293 294
304 303 303 304 304 305 305 305 305 305 304 304 304 303 303 303 302 301 300 300 300 299 299 298 299 299 298 296 297 298 299 300 301 302 302 302 298 296 295 297 297 296 295 294 295 296 296 296 296 296 296 296 296 296 297 297 296 296 296 295 295 294 294 293 292 291 290 289 288 288 289 289 290 290 290 290 290 290 290 291 291 292 292 292 293 293
304 303 303 303 303 304 305 305 305 305 304 304 304 303 303 302 301 300 300 300 299 299 299 299 299 299 299 297 297 298 298 299 300 301 301 301 299 296 294 295 296 295 294 292 293 293 294 294 294 295 295 295 295 295 295 296 296 295 295 295 294 294 293 292 291 290 290 289 288 288 289 290 290 290 291 291 290 290 290 291 291 291 292 292 292 293
304 303 303 302 303 303 304 304 304 304 304 304 303 303 303 302 301 301 300 300 299 299 299 299 299 299 299 298 296 296 296 298 299 300 300 300 298 296 294 294 294 294 293 291 290 291 292 293 293 294 294 294 294 294 294 294 294 294 294 294 293 293 292 291 291 290 290 289 289 289 289 290 290 291 291 291 291 291 291 291 291 291 291 291 292 292
303 303 302 302 302 302 303 304 304 304 304 304 303 303 302 302 302 301 301 300 299 299 299 299 299 299 298 296 294 294 295 296 298 299 299 299 298 295 293 293 293 293 292 291 290 290 290 291 292 293 293 294 294 293 293 293 293 293 293 293 292 292 292 291 291 291 290 290 289 289 290 290 290 291 291 291 291 291 291 291 291 291 291 291 291 292
303 303 302 302 302 302 303 303 303 303 303 303 303 303 302 302 302 301 301 300 300 299 299 299 299 299 298 296 294 294 295 296 297 298 299 299 298 295 292 292 292 292 293 293 292 291 290 290 291 292 293 293 293 293 293 293 292 292 292 292 292 292 292 291 291 291 291 290 290 289 290 290 291 291 291 291 291 291 291 291 291 290 290 290 291 291
302 302 302 301 301 301 302 302 303 303 303 303 303 302 302 302 302 301 301 301 300 299 299 299 299 299 298 297 297 297 296 296 296 297 298 298 297 295 293 292 292 292 293 294 295 295 293 291 290 290 291 292 292 292 292 292 292 292 292 292 292 292 292 291 291 291 291 290 290 290 290 290 291 291 291 291 291 291 291 291 290 290 290 290 290 290
301 301 301 301 301 301 301 301 302 302 302 302 302 302 302 302 302 302 301 301 300 300 300 299 299 299 298 298 298 298 297 296 297 297 298 298 296 294 292 292 292 291 292 293 295 295 294 292 290 289 290 291 292 292 292 292 292 292 292 292 292 292 292 292 291 291 291 291 290 290 290 290 291 291 291 291 291 291 291 290 290 290 290 290 290 290
300 300 300 300 300 300 300 300 301 301 301 301 301 301 301 301 301 301 301 301 301 300 300 300 299 299 299 298 298 298 297 296 297 297 298 297 296 294 292 292 292 291 291 291 292 293 292 291 290 289 289 289 290 291 292 291 291 291 291 291 292 292 292 292 291 291 291 290 290 290 290 291 291 291 291 291 291 291 291 290 290 290 290 289 289 289
299 299 299 299 299 299 299 299 299 300 300 300 300 300 300 300 301 301 301 301 301 300 300 300 300 300 299 298 298 297 296 296 296 297 297 297 296 294 292 292 292 291 291 291 291 290 290 290 290 289 288 288 288 290 291 291 291 291 291 291 291 292 292 291 291 291 290 290 290 290 290 290 291 291 291 291 291 291 290 290 290 289 289 289 289 289
299 299 299 299 299 299 299 299 299 299 299 299 300 300 300 300 300 300 300 301 301 300 300 300 300 300 300 299 299 298 297 296 296 297 297 297 297 295 293 292 292 292 292 291 291 291 290 289 289 289 289 288 288 288 289 290 291 291 291 291 291 291 291 291 291 291 290 290 290 290 290 290 291 291 291 291 290 290 290 290 290 289 289 289 288 288
299 299 299 299 298 298 298 298 298 299 299 299 299 299 299 299 300 300 300 300 300 300 300 300 300 300 300 300 300 299 298 298 297 297 297 297 297 296 294 293 293 292 292 292 292 291 290 289 289 289 289 289 288 288 288 289 290 291 291 291 291 291 291 291 291 290 290 290 289 289 290 290 291 291 291 290 290 290 290 290 289 289 289 288 288 288
299 299 299 299 298 298 298 298 298 298 298 298 299 299 299 299 299 299 300 300 300 300 300 300 300 300 300 300 299 299 299 298 298 297 297 297 297 297 295 294 293 293 293 293 293 292 291 290 290 289 290 290 289 288 288 288 289 289 290 290 291 291 291 291 290 290 290 290 289 290 290 290 291 291 291 290 290 290 290 290 289 289 288 288 288 287
299 299 299 299 298 298 298 298 298 298 298 298 299 299 299 299 299 299 299 300 300 300 300 300 299 299 299 299 299 299 299 298 298 298 297 297 297 297 296 295 293 293 293 293 293 292 292 291 291 291 291 290 289 288 288 288 288 288 289 290 290 291 291 290 290 290 290 290 289 289 290 290 291 291 290 289 289 289 289 290 289 289 288 288 288 287
299 299 299 299 298 298 298 298 298 298 298 298 298 299 299 299 298 299 299 299 299 299 299 299 299 299 299 299 299 298 298 298 298 298 298 297 297 297 296 295 294 293 293 293 293 293 292 292 292 292 291 291 289 288 288 287 288 288 288 288 289 289 290 290 290 290 290 289 289 289 290 290 290 290 290 289 289 289 289 289 289 289 288 288 288 288
299 299 299 299 298 298 298 298 298 298 298 298 298 298 298 298 298 298 298 298 298 298 298 298 298 298 298 298 298 298 298 298 298 298 298 297 297 297 296 295 294 293 293 292 292 292 292 292 292 292 291 291 290 288 288 287 288 288 288 288 288 288 289 290 290 290 290 289 289 289 289 290 290 290 289 288 288 288 289 289 289 288 288 288 288 288
299 299 298 298 298 298 298 298 298 297 297 297 297 298 298 298 298 297 297 297 297 297 296 296 296 296 296 296 296 296 296 297 297 297 297 297 297 296 296 295 294 294 293 292 292 292 292 292 292 291 291 290 289 288 288 287 287 288 288 288 288 288 288 289 290 290 290 289 289 289 289 289 289 289 289 288 288 288 289 289 289 288 288 288 288 288
298 298 298 298 298 298 298 297 297 297 297 297 297 297 297 297 297 296 296 295 294 295 295 295 295 294 294 294 294 294 295 295 295 296 296 296 296 296 295 295 294 294 293 292 292 291 292 292 292 291 291 290 289 289 287 287 287 288 288 288 288 287 287 288 289 289 289 289 289 288 289 289 289 289 288 288 288 288 289 289 289 288 288 288 288 288
298 298 298 298 298 297 297 297 296 296 296 296 296 296 296 296 296 296 295 294 293 293 293 293 293 293 293 291 291 292 292 293 294 294 294 295 295 295 295 294 294 293 293 292 291 291 291 291 291 291 291 290 290 289 287 287 287 287 288 288 288 287 287 287 288 288 289 289 288 288 288 288 288 288 288 288 288 288 289 289 289 288 288 287 287 287
298 298 297 297 297 296 296 295 295 295 295 295 295 295 295 295 295 295 294 293 293 292 292 292 292 292 291 289 289 289 290 291 292 292 292 293 293 293 294 293 293 293 293 292 292 291 291 290 290 290 290 290 289 288 288 287 287 287 287 287 287 287 287 287 287 288 288 288 288 288 288 288 288 288 289 288 288 288 289 289 288 288 287 286 286 286
298 297 297 296 295 295 295 294 294 294 294 294 294 294 294 294 294 294 294 293 292 291 291 291 292 291 290 289 288 287 287 288 289 290 291 291 291 292 292 292 292 292 292 292 292 291 291 291 290 289 289 289 288 288 288 287 287 286 287 287 287 286 286 286 287 287 288 288 288 288 288 288 288 288 289 289 288 288 288 288 288 287 286 285 285 285
297 296 296 295 294 294 294 294 294 293 293 293 293 293 293 293 293 293 293 292 292 291 291 291 291 291 290 289 287 287 287 287 287 288 289 290 290 291 291 291 291 291 291 291 291 291 291 291 290 289 289 288 287 287 287 287 287 286 286 286 286 285 285 285 286 287 287 287 287 287 287 287 288 288 288 289 289 288 288 288 288 287 286 285 284 284
297 295 294 294 293 293 293 293 293 293 292 292 292 292 292 292 292 292 292 292 291 291 290 290 291 291 290 288 287 287 287 287 287 287 287 288 289 289 290 290 290 290 290 290 290 290 290 290 290 289 289 288 287 286 286 286 286 286 286 286 285 285 284 285 285 286 286 287 287 287 287 287 287 287 288 288 288 288 288 288 288 287 286 285 284 284
296 294 293 293 293 292 292 292 292 292 292 292 291 291 290 291 291 292 291 291 290 290 290 290 290 290 288 287 287 287 287 287 286 286 286 287 287 288 288 288 288 288 288 289 289 289 288 288 288 289 289 289 288 287 286 286 286 286 286 286 285 285 284 284 285 285 286 286 287 287 287 287 287 287 287 287 287 287 288 288 287 287 286 285 285 285
295 294 293 292 292 292 292 291 291 291 291 291 290 289 289 290 290 291 291 290 290 290 290 290 290 289 288 287 287 287 287 286 286 285 285 286 286 287 287 287 287 287 287 287 287 287 287 287 287 287 288 288 288 287 286 285 285 285 285 285 285 284 284 284 284 284 285 286 286 287 287 287 287 287 287 286 286 286 286 287 287 287 286 286 285 285
293 293 292 292 292 292 291 291 291 291 291 290 290 289 288 289 289 289 289 289 289 289 290 290 290 289 287 287 287 286 286 286 285 285 285 285 286 286 286 286 286 286 285 285 285 285 285 285 285 285 286 287 287 287 287 286 285 285 285 284 284 284 284 284 284 284 284 285 286 286 287 286 286 286 286 286 286 285 285 286 286 286 286 286 286 286
Wind_Speed
16 16 16 15 15 14 13 13 12 12 13 15 16 17 18 19 19 20 20 21 21 21 21 22 23 23 24 24 23 23 22 22 22 22 21 21 21 22 22 22 21 21 21 20 20 21 21 22 21 21 20 20 20 20 20 20 19 18 17 17 16 14 14 15 15 15 15 16 17 19 19 20 20 22 22 22 21 21 19 18 18 17 15 13 10 8
16 16 17 17 17 17 16 16 15 15 15 16 17 18 19 19 20 21 22 22 22 22 22 22 23 24 24 24 25 24 24 23 23 22 21 21 21 21 21 21 21 20 20 19 20 20 21 21 20 19 19 18 18 19 19 17 15 14 13 13 12 12 13 13 14 15 16 18 19 20 21 22 23 24 24 23 22 22 20 19 18 16 14 12 9 7
16 17 18 19 20 20 20 20 20 19 19 19 20 20 21 22 22 23 23 23 23 22 22 23 23 23 24 24 24 23 23 22 22 21 21 20 21 21 21 21 21 21 20 20 21 21 21 21 20 19 18 17 18 18 17 15 13 11 10 10 11 13 13 14 15 17 18 20 21 22 23 24 25 25 25 23 22 21 20 18 16 14 12 10 8 7
17 18 20 21 21 22 23 23 23 23 23 23 23 24 24 24 24 25 25 24 24 23 23 23 23 23 23 23 22 21 21 20 20 20 21 20 21 21 21 22 21 21 21 22 22 22 22 22 20 19 19 19 19 18 16 14 13 12 11 12 14 15 16 17 18 20 21 22 23 24 25 25 25 25 24 22 20 19 17 15 13 11 10 8 7 6
18 19 21 21 22 23 25 25 25 25 25 25 26 26 26 26 26 26 26 25 25 25 25 24 24 24 23 22 21 20 19 19 20 21 21 21 21 21 21 22 22 22 22 23 23 23 23 23 22 21 20 20 20 19 17 15 15 15 14 15 16 17 17 17 18 20 21 22 23 23 24 24 23 22 21 19 17 16 14 13 12 10 9 8 7 5
18 20 21 22 22 23 24 25 25 25 26 26 27 27 27 27 27 26 26 26 26 26 26 26 25 25 24 23 22 20 20 20 21 22 22 22 21 21 21 22 23 23 23 24 24 24 24 23 23 22 21 22 21 20 18 17 17 17 17 18 18 18 16 16 17 18 20 20 21 21 21 20 20 19 18 17 15 14 13 12 11 11 10 9 7 7
17 19 20 21 22 23 23 24 24 25 25 25 26 26 27 27 26 26 26 27 27 27 27 26 26 26 25 24 23 21 21 22 23 24 24 22 21 21 22 22 23 24 24 25 25 25 25 24 23 23 22 22 22 20 19 18 19 19 19 20 20 19 17 17 17 18 19 19 20 20 19 19 18 18 17 16 15 13 13 12 11 11 10 9 9 9
15 16 18 19 21 22 22 23 24 24 24 23 23 24 25 26 26 26 26 27 27 27 27 27 27 27 26 25 24 22 22 23 24 25 25 23 22 21 22 23 24 25 25 25 26 26 25 25 24 24 23 23 22 21 20 19 19 20 20 21 21 20 19 19 19 20 20 21 21 21 20 20 19 18 17 16 15 14 13 12 12 11 11 10 10 11
15 15 16 18 19 20 20 22 24 24 24 23 22 22 22 23 24 25 26 27 27 28 28 28 28 28 27 26 24 23 23 24 25 26 25 24 22 22 23 24 25 26 26 26 26 26 26 25 25 24 24 23 23 22 21 20 20 20 20 21 22 22 22 21 22 22 23 23 23 22 22 21 20 19 18 18 17 16 15 14 13 12 11 11 11 11
18 16 15 17 18 19 18 19 21 23 23 23 22 22 21 20 20 21 22 25 27 29 29 29 29 28 28 26 25 24 24 25 26 26 25 24 23 23 24 25 26 27 28 28 27 27 26 25 25 24 24 24 23 22 22 21 20 20 21 21 22 23 23 24 24 25 25 25 25 24 24 23 22 21 20 19 19 18 17 15 14 13 12 12 11 11
17 17 15 15 16 18 18 18 19 20 21 21 21 22 23 22 20 18 17 20 23 26 28 29 29 29 28 27 26 25 24 25 25 26 25 24 23 23 24 25 27 28 29 29 29 28 27 26 25 25 25 25 24 24 22 21 21 21 21 22 23 24 24 25 26 26 27 27 26 26 25 24 23 22 21 20 20 19 17 16 14 13 12 11 10 10
16 16 15 14 13 14 17 17 18 19 18 18 17 17 20 22 22 19 17 17 19 21 23 26 28 29 28 27 26 26 25 25 25 25 24 23 22 22 23 24 27 29 30 30 30 29 28 27 26 26 26 26 25 24 23 22 22 22 22 22 23 24 25 26 26 27 27 27 26 26 25 24 23 22 21 21 20 18 17 15 14 12 11 10 10 10
16 16 14 14 13 13 14 15 15 15 16 15 15 15 16 19 20 20 19 20 20 20 20 21 24 27 28 28 27 26 26 25 25 25 24 23 22 22 22 24 26 29 30 30 29 28 27 27 27 27 27 27 26 25 24 23 23 22 22 22 23 24 25 26 26 26 26 26 25 25 24 23 22 21 21 20 19 18 16 15 13 12 12 11 11 11
15 15 14 14 14 14 14 14 14 13 15 17 18 18 17 17 17 18 19 21 21 21 19 18 20 23 26 27 27 26 26 25 25 24 24 23 23 23 23 25 27 29 30 29 28 27 28 28 28 28 28 27 27 25 24 23 23 23 22 22 23 24 25 25 26 26 25 25 24 23 22 22 21 20 20 19 18 17 15 14 14 13 13 13 13 13
14 12 11 12 13 14 14 14 15 16 18 19 20 20 19 17 17 17 18 18 19 19 17 17 18 20 23 25 26 26 25 25 24 23 23 23 24 24 24 26 28 29 30 29 29 28 29 29 29 29 29 28 27 26 24 24 23 23 23 23 23 24 24 25 25 25 25 24 23 22 21 21 20 19 19 18 17 16 15 15 14 14 15 15 15 15
14 12 11 12 13 15 16 15 16 17 19 20 20 19 19 19 18 18 17 17 16 15 13 12 13 15 19 23 25 25 25 25 23 22 22 23 24 25 26 28 29 30 30 31 31 30 30 31 31 31 30 29 27 26 25 24 24 23 23 23 24 24 24 25 25 24 24 23 22 22 21 20 19 19 18 17 17 16 16 15 15 15 16 16 16 16
15 14 14 14 15 17 17 17 17 18 19 19 20 20 20 20 19 18 18 17 15 13 13 12 7 5 8 14 21 25 26 25 23 22 21 23 25 26 28 29 30 31 31 32 32 32 32 32 32 32 31 29 28 26 25 24 24 24 24 24 24 24 24 24 24 23 22 21 21 20 19 19 18 17 17 17 16 16 16 16 16 16 16 16 16 15
16 16 16 16 17 18 18 17 17 18 19 19 19 20 22 22 21 20 19 18 16 14 14 13 10 6 4 6 12 20 25 25 23 21 20 22 25 28 29 30 32 32 33 33 33 34 34 34 34 33 32 30 28 27 25 24 24 24 24 24 24 24 23 23 22 22 21 20 19 18 17 17 17 16 16 16 16 16 15 15 15 15 15 15 14 14
18 18 18 17 18 19 19 18 17 18 18 18 18 18 19 20 21 21 20 20 19 17 16 14 14 13 12 11 13 17 21 24 24 21 19 19 24 28 29 31 32 32 33 33 34 35 35 35 34 33 32 30 29 27 26 24 24 24 24 23 23 23 22 22 21 20 19 18 17 16 16 16 16 15 15 15 15 15 15 15 14 14 13 13 13 13
19 20 20 20 20 19 19 19 19 19 19 20 19 18 18 19 20 20 21 20 20 20 18 17 16 16 16 16 15 15 17 22 24 22 19 18 22 27 30 31 31 31 32 32 33 35 35 35 34 33 32 30 29 27 26 25 24 23 23 22 22 21 20 20 19 18 17 17 16 15 15 15 15 15 15 15 15 14 14 13 13 12 12 12 12 13
21 23 25 23 20 19 18 20 22 22 22 21 20 19 19 19 19 19 20 19 20 20 19 17 17 18 18 17 16 16 17 21 25 24 18 17 19 25 30 31 30 29 29 30 32 34 35 35 34 33 32 31 29 28 26 25 23 22 22 21 20 19 18 18 17 16 16 15 15 15 15 15 15 15 15 15 14 14 13 12 12 11 12 12 13 13
22 23 25 25 24 22 22 23 23 23 23 22 21 21 20 18 18 19 19 19 19 18 18 19 20 20 20 20 20 19 20 22 25 24 17 14 15 22 29 31 30 28 27 28 31 33 34 34 34 33 32 31 29 28 26 24 23 22 20 19 18 17 17 16 15 15 15 15 15 15 15 15 15 15 14 14 13 13 12 12 12 12 13 13 13 14
27 27 26 26 26 26 26 25 25 24 24 24 24 24 23 22 21 21 21 21 21 21 22 22 23 23 23 23 22 21 21 23 25 25 19 12 12 19 28 30 29 26 25 27 30 33 33 33 33 33 32 30 29 28 26 24 22 21 20 19 18 17 16 15 15 14 14 14 14 15 15 15 14 14 14 13 13 12 12 13 13 13 14 14 14 14
32 32 30 27 27 28 28 27 26 26 26 26 26 26 27 26 26 25 25 24 24 25 25 25 24 23 22 23 23 23 23 24 26 26 21 16 14 19 26 30 28 24 22 26 30 32 32 32 32 32 31 30 28 27 26 24 23 21 20 20 19 18 17 16 15 14 14 14 14 14 15 15 14 14 13 13 13 13 14 14 14 14 14 14 14 14
34 34 32 29 28 28 28 29 28 28 28 28 28 28 28 27 27 27 27 26 26 25 24 22 19 17 18 20 21 22 25 26 28 27 21 16 14 18 26 31 29 24 20 24 29 31 32 31 31 31 30 29 28 27 26 24 23 22 21 20 19 18 17 16 15 14 14 14 14 15 15 15 14 14 13 13 13 14 15 15 15 15 15 15 15 15
38 37 35 32 31 30 30 30 31 31 31 31 30 29 28 28 27 26 25 24 24 23 20 16 13 13 16 17 18 20 25 27 30 30 24 17 12 15 23 30 30 24 20 23 27 29 31 30 30 30 29 28 27 26 26 25 24 23 22 21 19 18 16 15 14 14 14 14 14 15 15 15 15 14 14 13 14 14 15 16 16 16 15 15 15 15
40 38 35 34 33 33 33 33 33 33 32 32 32 31 29 27 26 23 21 21 22 21 18 12 9 10 13 13 15 18 23 27 31 32 28 20 13 13 20 28 29 25 21 21 24 27 29 29 29 29 29 28 27 26 25 24 24 23 21 20 18 17 16 15 14 14 14 14 15 15 15 15 15 14 14 13 13 14 15 16 16 16 16 16 17 17
40 38 35 33 33 34 35 35 35 34 33 32 32 31 30 27 24 21 19 21 22 21 18 13 8 6 7 10 14 18 22 26 30 32 31 22 14 13 19 26 28 24 20 19 21 24 25 26 27 28 28 28 27 26 25 24 23 22 21 19 17 16 15 15 14 14 14 14 15 15 16 16 15 15 14 14 14 14 14 15 15 16 17 17 18 18
39 37 34 32 32 34 36 36 35 34 33 32 31 31 30 28 26 23 22 22 22 20 19 17 15 11 9 11 13 16 19 24 29 33 33 22 13 13 20 25 26 24 20 17 16 17 18 22 25 27 27 27 26 25 24 23 22 21 20 18 17 16 16 15 15 15 14 15 15 15 16 16 15 15 14 14 14 14 14 14 15 17 17 18 19 19
38 36 34 33 33 34 35 36 35 34 33 32 31 30 30 29 28 26 25 24 23 22 20 19 18 15 12 9 8 9 13 21 28 32 32 23 15 13 20 23 25 25 23 17 10 6 9 17 23 26 27 27 26 25 24 23 22 21 20 19 18 17 17 16 16 16 15 15 15 15 16 16 16 15 15 15 14 14 14 14 16 17 18 19 19 19
35 35 34 34 34 34 35 35 34 33 32 31 30 30 29 29 28 27 26 25 25 25 22 20 18 17 14 7 4 3 6 18 27 32 33 25 17 15 21 22 23 26 27 21 9 1 4 10 18 24 26 26 26 26 25 25 24 23 22 21 20 19 18 18 17 16 16 15 15 16 16 16 16 15 15 15 15 15 15 15 16 17 18 19 19 19
33 33 34 34 34 33 34 34 34 32 31 30 30 30 30 29 29 28 27 28 29 28 25 22 20 19 19 14 10 7 7 17 26 31 34 26 18 16 22 22 22 25 28 25 17 9 6 5 13 22 25 26 26 27 26 26 25 24 24 23 22 21 20 19 18 17 16 16 15 15 16 16 16 16 16 16 15 15 15 16 17 17 18 18 19 19
31 32 32 32 32 31 32 33 33 32 32 31 30 30 30 30 30 30 30 31 32 31 29 25 22 21 21 22 19 16 14 19 25 31 34 28 20 16 21 22 22 24 26 24 21 15 9 9 13 18 23 25 26 27 27 27 26 25 25 25 24 23 21 20 19 19 18 17 16 16 16 16 16 16 16 16 16 16 15 16 16 17 17 18 18 19
29 30 30 29 28 28 29 31 31 32 31 31 31 31 31 31 31 31 31 33 34 35 34 30 27 24 22 20 19 18 17 20 25 29 32 32 24 18 22 23 23 23 23 21 16 12 10 14 16 17 18 22 25 27 28 28 27 27 26 26 25 24 23 21 21 20 19 18 17 17 16 17 17 17 17 17 16 16 15 16 16 16 16 17 18 19
26 27 27 26 25 25 26 27 29 29 30 30 30 31 31 31 30 30 31 33 35 37 37 35 33 30 26 22 18 16 18 21 24 28 31 34 30 24 23 23 24 24 23 20 16 12 10 14 18 18 16 17 21 24 27 28 28 28 27 27 26 25 24 23 23 22 21 20 19 18 18 18 18 18 18 18 17 16 16 15 15 16 16 16 17 18
25 25 25 25 24 24 24 25 26 27 27 28 29 29 30 30 30 30 31 33 35 37 38 38 37 36 33 30 25 22 23 25 27 28 31 35 34 29 24 23 25 27 24 22 19 16 12 13 17 19 18 16 15 19 24 28 29 28 28 27 27 26 25 25 24 23 22 21 20 20 20 20 20 20 20 19 17 16 16 15 14 15 15 15 16 16
24 24 24 24 24 23 24 24 24 25 26 27 28 28 28 29 29 29 31 32 34 36 38 38 38 37 36 35 32 30 30 30 30 29 31 34 36 33 27 25 27 29 27 24 21 19 16 14 14 16 18 17 15 15 20 26 28 28 28 28 28 27 26 25 25 24 23 22 22 21 21 21 21 21 20 19 17 16 15 14 14 13 14 14 15 15
23 23 23 24 24 24 24 23 24 25 26 26 27 28 28 28 29 29 30 32 34 35 37 38 37 36 35 34 33 31 31 31 31 31 32 34 36 36 31 28 28 31 31 29 26 23 19 15 11 10 13 17 17 18 21 25 27 27 28 29 29 28 27 26 25 24 24 23 23 22 22 22 22 22 21 20 18 17 16 15 14 12 12 12 13 14
23 22 23 24 24 24 24 24 25 26 27 28 29 29 29 28 28 29 30 31 32 34 35 36 37 36 34 33 31 30 29 30 31 32 32 34 36 36 34 30 29 31 33 32 30 27 24 20 16 13 13 14 16 18 22 25 26 26 27 28 28 28 28 27 26 25 25 24 24 23 23 22 22 22 21 20 19 18 18 17 15 14 13 12 13 13
23 22 23 24 25 26 26 26 27 27 28 28 28 28 28 27 27 27 28 29 30 31 33 34 35 35 33 32 30 29 28 29 30 31 32 33 35 36 35 32 31 31 33 31 29 27 26 24 21 20 19 18 17 18 20 23 25 26 25 23 22 24 28 28 27 26 26 25 25 25 24 24 23 22 22 21 20 20 19 18 17 16 15 15 15 15
23 23 23 24 26 27 28 28 28 27 28 27 27 27 26 27 27 26 26 27 27 28 29 31 32 32 31 30 29 28 27 27 28 30 31 32 34 35 35 32 31 32 32 31 28 27 26 24 22 20 20 20 20 20 21 23 25 27 26 23 22 24 28 29 28 27 27 26 26 26 26 25 24 23 22 21 20 20 19 19 18 17 16 16 16 17
24 23 24 24 26 27 29 28 27 26 27 27 26 26 26 26 26 26 25 25 25 26 27 28 28 27 25 25 26 26 25 26 27 28 30 31 33 35 35 33 32 32 32 30 27 25 26 24 22 21 21 21 21 20 19 22 26 27 26 25 24 24 25 29 29 28 27 27 27 27 27 26 25 24 23 22 21 20 19 18 18 17 17 17 17 17
24 23 24 25 26 27 27 26 26 26 26 26 26 26 27 27 27 26 25 24 24 25 25 26 25 24 22 20 21 23 24 25 26 28 29 31 33 35 35 34 32 32 32 29 26 24 24 23 22 22 23 24 23 21 20 21 24 26 25 26 25 22 18 24 28 29 28 28 28 28 28 27 26 25 23 22 21 21 20 19 18 18 17 17 17 17
24 23 24 25 26 26 26 25 25 26 26 26 26 26 27 27 27 26 25 23 23 24 24 24 23 22 20 18 18 20 23 25 26 28 29 31 32 34 35 33 32 32 32 29 26 23 22 21 21 22 23 24 23 22 22 22 23 25 26 27 27 24 21 25 29 31 28 28 28 29 28 28 26 25 24 23 22 22 21 21 20 19 18 17 17 16
26 24 24 24 25 25 24 25 26 26 26 26 26 26 26 27 27 26 25 23 22 22 23 23 21 18 16 16 16 18 20 23 25 27 28 29 31 32 33 32 31 31 30 29 28 25 23 21 20 21 23 23 23 22 22 22 24 25 26 27 27 26 27 30 32 33 30 29 29 29 29 28 27 26 25 25 24 23 23 22 21 20 18 17 17 16
26 24 22 22 23 24 24 25 25 25 25 24 24 25 25 27 26 25 25 24 23 22 22 23 21 18 15 15 16 16 17 19 21 24 26 27 28 29 30 30 30 29 28 28 27 26 26 25 24 23 22 21 20 21 22 24 24 25 25 26 25 24 24 27 30 32 32 31 30 30 30 28 27 27 27 27 27 26 24 23 22 20 19 18 17 16
25 23 21 22 23 24 25 25 24 24 23 22 22 23 24 26 26 26 25 24 23 22 22 22 21 19 17 17 17 17 17 17 18 20 23 25 26 26 27 27 27 26 26 25 24 23 24 25 26 26 24 20 18 18 21 24 26 26 26 26 25 23 23 25 29 32 33 32 31 31 31 29 28 27 27 28 28 27 26 24 23 21 20 19 18 17
23 21 22 22 23 23 23 23 23 23 22 21 22 22 24 25 26 26 24 23 23 22 22 21 19 17 16 17 19 19 19 19 19 20 22 23 24 24 24 24 23 23 22 22 21 21 21 22 24 26 26 23 19 18 20 23 25 27 27 27 26 24 24 26 29 32 32 32 32 32 32 31 29 28 28 28 28 27 27 25 24 22 21 19 18 17
22 22 23 24 24 23 23 23 23 23 22 21 21 21 23 24 26 25 24 23 23 22 21 20 19 16 15 16 17 19 20 20 20 20 22 23 24 24 23 23 22 22 21 20 19 19 19 21 22 24 25 24 23 22 22 24 25 27 28 28 27 26 24 26 28 31 32 32 32 32 32 31 31 30 28 27 26 26 27 26 25 23 22 20 19 18
23 24 25 25 24 23 23 23 23 22 22 22 21 21 21 23 24 24 24 24 23 22 21 21 20 17 16 16 17 18 19 19 19 20 21 23 25 25 24 24 24 23 21 19 17 17 16 16 18 20 22 22 23 23 24 25 26 26 26 26 26 26 25 26 28 30 32 32 32 32 32 31 30 29 28 26 24 24 25 26 25 24 22 21 20 19
22 24 25 25 24 24 23 23 23 23 22 22 22 21 21 21 22 22 22 22 22 21 21 21 20 19 18 18 18 19 20 20 19 19 20 23 25 26 26 26 25 23 20 15 13 11 11 9 8 10 14 18 20 22 26 27 27 25 24 24 25 25 25 25 27 29 31 33 33 33 32 31 29 28 27 25 23 21 22 23 25 25 24 22 21 20
Wind_Direction
248 247 245 240 235 233 234 233 228 223 220 219 218 218 221 226 233 241 248 254 257 257 256 253 252 250 248 245 243 243 245 247 249 250 251 252 252 253 253 253 252 250 248 247 247 246 243 240 238 241 247 251 252 250 248 249 251 251 249 247 244 236 226 223 223 223 220 213 206 199 195 193 194 195 194 193 193 193 191 192 195 198 201 205 212 220
247 245 242 240 236 232 232 232 229 226 225 225 226 228 231 236 241 247 253 257 259 258 257 257 257 256 253 250 247 246 247 247 248 249 249 250 251 252 253 252 250 246 242 239 239 239 238 237 238 241 246 246 246 245 243 244 245 245 242 238 231 223 217 216 216 214 210 204 198 192 187 185 186 188 188 187 187 187 188 190 193 196 199 203 208 216
246 243 242 241 239 236 235 234 234 233 233 235 238 241 245 247 250 253 256 258 259 258 257 258 259 259 257 254 252 250 249 249 249 249 248 248 248 250 251 251 248 243 238 236 235 235 234 235 236 238 240 240 239 238 235 233 232 230 225 218 210 205 202 201 200 197 194 190 185 182 180 180 181 182 183 182 182 184 186 189 193 196 199 203 209 216
246 242 242 243 242 240 239 238 238 238 238 241 244 249 252 254 256 257 258 259 258 257 257 258 259 259 258 257 255 254 253 252 251 250 247 246 246 247 248 248 245 241 238 236 235 234 234 235 236 237 236 237 235 232 227 223 220 216 211 205 199 195 192 190 188 186 183 180 178 177 177 178 179 180 181 181 183 186 190 194 197 200 204 208 214 216
245 242 243 243 242 241 243 242 241 241 243 244 247 250 254 256 257 258 258 258 257 256 256 256 256 257 256 256 255 255 255 254 253 250 247 245 244 244 245 245 244 242 238 237 235 235 234 235 235 235 235 234 232 228 222 217 213 210 206 202 198 193 189 189 188 186 183 180 178 177 178 179 180 182 184 187 190 194 199 203 206 209 213 216 216 209
248 244 244 242 241 242 245 244 244 244 245 247 249 251 252 254 255 256 256 256 256 255 255 255 255 254 254 253 253 254 255 255 253 250 247 244 243 242 242 242 243 242 239 237 235 234 234 234 234 233 232 231 229 224 219 214 211 209 206 204 200 197 194 195 196 194 190 187 185 184 184 185 186 188 191 195 199 203 206 209 211 214 216 217 211 201
252 246 242 240 240 242 243 244 244 245 245 247 250 251 252 253 253 254 254 255 255 255 255 255 254 253 251 250 250 252 254 255 254 251 247 244 241 239 238 240 241 241 240 237 235 233 233 233 232 231 230 228 225 222 218 214 212 211 209 207 204 201 199 200 202 202 200 197 195 193 192 192 193 194 197 199 202 205 207 209 211 212 213 212 205 197
253 246 239 235 235 237 238 240 242 243 244 245 247 250 251 252 252 252 253 253 254 254 254 254 253 252 250 248 247 249 252 254 254 252 248 243 239 236 235 237 239 240 240 237 234 233 231 231 230 228 226 223 221 218 216 214 213 213 212 210 207 205 202 200 199 200 201 201 200 199 197 196 196 196 198 200 201 203 205 205 207 207 208 205 200 196
252 246 238 232 229 229 232 236 240 242 243 243 243 244 246 249 251 251 252 252 253 253 253 253 252 252 250 248 246 247 249 252 253 251 248 243 237 233 232 234 237 239 239 236 233 231 230 228 227 224 221 218 215 214 213 213 213 213 212 210 208 205 203 199 197 196 197 199 199 200 199 199 199 200 201 203 204 204 204 203 202 201 202 200 198 197
252 248 242 237 232 230 230 234 239 242 243 243 243 243 243 243 246 248 249 250 251 251 251 250 250 250 251 249 248 247 248 250 251 250 247 243 238 234 232 233 234 236 237 235 232 229 228 225 222 219 216 213 211 210 211 211 211 211 210 208 207 205 204 202 199 197 195 196 197 198 199 201 202 204 206 208 209 208 206 203 200 198 197 197 197 199
251 248 245 240 236 233 231 233 236 238 241 241 241 241 241 240 239 240 242 246 249 250 249 248 247 248 249 250 250 250 250 250 250 249 246 243 240 237 235 235 235 235 235 233 230 228 225 221 217 213 210 208 207 207 208 208 209 208 208 207 206 206 205 205 203 200 197 196 196 197 199 201 204 206 208 209 209 208 206 204 202 200 200 200 202 205
249 248 246 242 237 231 228 229 232 233 233 231 232 236 239 239 237 236 237 242 246 248 248 248 247 247 246 248 250 252 252 252 252 250 248 245 242 240 238 237 236 234 231 229 227 224 221 217 211 207 204 203 204 204 205 206 206 206 207 207 207 207 207 208 206 204 201 199 198 198 199 201 203 205 206 207 206 206 205 205 205 207 210 214 218 220
245 245 243 240 237 231 224 222 223 223 221 219 222 230 238 240 238 236 238 242 246 248 247 247 247 247 247 247 248 250 252 253 253 253 251 249 246 242 238 235 230 226 222 219 217 215 213 209 204 201 200 200 201 203 204 205 206 206 207 208 208 208 209 209 209 207 205 202 200 199 199 200 201 202 203 204 204 204 205 208 212 218 225 232 237 239
241 239 236 235 235 231 223 216 212 213 219 223 228 235 240 242 240 238 238 242 245 247 247 246 247 247 248 246 246 247 249 250 251 252 252 250 246 240 234 227 222 217 213 208 205 204 203 200 197 196 197 198 200 202 203 205 206 207 208 208 209 209 210 210 210 209 207 205 203 202 201 200 200 201 201 203 204 207 211 216 223 231 238 243 247 248
235 230 229 231 233 231 224 217 217 223 228 231 235 239 241 243 241 237 235 239 243 245 245 245 246 248 248 246 244 244 244 245 245 245 244 242 239 234 227 219 214 210 205 200 197 196 196 194 193 193 195 197 199 202 203 205 206 207 208 208 209 209 209 210 210 209 207 205 204 203 202 202 202 203 204 207 210 215 221 228 235 241 246 249 250 250
231 226 227 232 236 235 231 225 224 229 233 236 236 236 237 238 237 234 233 235 238 238 235 235 240 247 249 246 242 239 238 238 237 235 232 229 226 222 216 210 204 201 198 195 192 192 192 193 193 194 195 198 201 203 204 205 206 207 207 207 207 208 208 209 209 208 206 205 205 205 205 206 208 211 214 218 223 229 235 240 245 248 250 251 251 249
231 228 230 235 239 240 238 233 231 233 235 235 234 233 232 232 233 232 231 231 230 229 228 229 232 246 249 245 240 236 232 230 229 227 223 217 213 210 206 202 198 194 193 191 191 190 191 192 194 195 197 199 202 204 205 206 206 206 206 206 206 207 207 208 209 209 209 209 210 212 214 217 221 225 229 234 239 243 247 250 252 252 252 250 248 243
232 229 230 234 240 242 240 236 233 232 232 232 232 231 232 232 232 231 229 228 226 226 227 226 227 230 234 234 234 232 228 224 221 219 216 211 206 203 199 197 195 193 191 190 190 191 192 194 195 197 199 201 203 204 205 206 206 206 206 206 206 207 208 210 211 213 215 217 219 223 226 230 235 239 243 246 249 251 252 253 253 251 249 244 238 230
235 231 231 234 239 241 240 235 231 228 227 226 226 226 227 229 229 228 227 227 226 225 225 226 229 233 236 240 237 231 226 221 216 213 211 208 204 199 194 193 192 191 190 189 189 191 193 195 197 199 201 202 203 204 205 205 206 206 207 207 208 209 211 213 215 218 221 225 228 231 234 238 241 243 244 247 248 249 250 249 248 244 238 230 221 213
239 235 233 235 238 240 238 234 231 229 227 227 226 224 224 224 225 226 226 227 227 227 227 227 229 232 235 239 239 232 224 217 212 209 208 206 202 197 192 190 189 188 188 189 190 191 193 195 197 199 201 203 204 204 204 205 205 206 207 208 210 212 214 216 219 221 224 227 230 232 234 237 238 238 238 240 241 242 242 240 236 229 219 208 200 198
244 241 240 236 234 234 234 235 234 234 232 229 225 222 221 221 222 223 224 224 225 225 226 226 229 232 233 234 233 229 224 213 206 204 207 205 201 198 193 190 188 187 187 189 190 191 193 195 197 198 200 202 203 203 203 204 205 206 207 208 210 212 213 215 217 220 222 224 226 228 229 230 231 231 231 232 233 232 230 225 218 208 198 191 189 190
248 246 242 237 232 231 234 237 237 236 233 228 222 219 219 217 218 220 222 221 221 222 223 227 231 233 232 233 232 230 227 217 208 203 203 201 201 200 195 191 188 187 187 189 190 191 192 195 197 199 200 201 202 202 202 202 203 203 204 205 206 207 208 210 211 213 215 217 219 220 221 221 222 222 223 223 222 219 213 204 195 187 184 184 185 187
256 255 250 241 234 232 233 236 237 236 233 228 224 222 222 219 219 219 220 220 221 223 225 228 231 232 232 231 230 228 224 220 213 207 202 200 203 202 196 191 188 186 188 190 191 190 192 194 197 198 199 200 200 201 200 200 200 200 199 200 200 201 201 202 203 206 208 211 213 214 213 213 212 212 213 212 209 203 195 187 181 179 179 181 182 183
258 260 258 249 240 235 233 234 235 234 233 230 228 228 228 228 228 228 228 227 226 226 227 227 228 229 228 226 224 222 219 217 213 207 203 205 205 200 197 192 188 187 189 192 192 190 191 193 195 197 197 197 198 199 199 198 197 196 196 196 196 196 197 197 198 200 203 207 208 208 206 205 203 203 203 202 198 191 184 179 177 177 178 179 180 180
253 256 257 255 249 242 237 236 235 234 233 232 231 230 230 231 232 233 233 231 227 224 221 220 220 222 221 219 216 215 215 214 210 206 203 206 201 194 196 193 190 186 187 191 192 191 190 191 192 193 193 194 196 197 198 197 196 195 195 195 195 195 195 195 195 197 200 202 204 202 199 197 196 196 196 195 191 186 181 178 177 176 177 178 178 177
247 249 253 256 256 252 246 243 241 239 237 234 233 231 229 228 227 225 223 220 216 212 207 206 211 216 215 211 210 211 211 210 208 206 205 202 188 183 192 192 190 186 184 188 190 190 189 188 188 189 189 191 193 195 197 197 197 196 196 196 196 195 194 193 193 194 197 198 199 197 194 192 191 192 192 191 188 184 181 180 178 177 177 177 177 176
244 245 249 254 257 257 254 251 247 244 240 237 234 231 228 223 218 214 211 210 206 202 199 203 211 215 212 207 209 211 210 208 206 206 205 200 185 176 186 189 189 185 179 181 185 187 186 185 185 185 186 188 190 193 196 196 197 197 197 196 195 193 191 190 191 192 194 195 194 192 189 188 188 189 190 189 186 184 182 181 180 179 179 179 178 176
243 244 247 251 255 257 256 253 248 243 239 236 233 229 225 217 211 207 208 207 203 200 201 205 209 208 208 208 210 211 210 208 206 206 205 202 192 181 184 186 186 182 173 171 176 181 183 184 183 183 183 185 188 191 194 195 196 196 195 194 192 189 188 188 189 190 192 192 191 189 187 186 187 187 187 186 184 183 183 182 182 183 184 183 181 178
242 243 245 248 252 255 254 251 246 241 236 232 228 225 221 215 211 210 212 208 202 200 204 209 211 211 208 202 201 203 208 209 209 207 204 201 195 186 184 182 181 178 169 160 161 171 180 183 183 181 180 182 185 188 190 191 192 192 191 189 187 186 185 186 188 190 191 191 189 187 186 185 185 185 185 184 183 182 181 181 185 188 188 187 184 182
240 240 242 245 248 250 250 248 243 238 233 229 225 222 219 216 215 215 214 209 203 202 207 210 211 208 198 182 180 195 207 212 211 208 204 200 196 185 179 177 178 177 171 160 149 156 183 187 184 181 179 179 181 184 186 187 188 187 185 183 183 183 185 186 187 189 191 190 188 186 185 185 185 185 185 184 183 182 181 183 189 192 192 190 189 188
237 237 239 241 243 244 244 243 240 236 232 228 225 222 220 219 218 217 216 211 206 205 207 208 208 202 190 170 155 186 211 211 211 208 204 201 197 185 176 174 177 179 177 173 165 126 184 192 190 185 180 178 179 181 183 185 186 185 182 180 180 182 185 186 187 188 190 190 188 186 185 185 185 185 185 185 184 182 182 188 193 195 195 193 192 192
240 239 238 239 239 239 238 238 237 236 233 230 227 226 225 224 223 222 219 215 211 209 207 207 206 202 196 197 199 201 206 205 207 207 204 202 198 188 180 177 178 181 182 182 182 180 165 177 190 189 183 180 179 180 182 184 185 184 182 180 181 182 184 185 187 188 189 190 188 186 185 185 185 186 186 185 184 183 185 191 196 197 197 196 195 195
247 243 240 238 236 235 235 235 235 235 234 233 232 231 231 231 230 229 225 221 217 213 210 207 206 204 204 206 209 211 207 203 206 207 204 200 195 186 181 179 179 180 183 185 187 185 172 165 175 183 184 183 182 181 182 183 185 184 183 181 181 182 183 184 186 188 189 189 187 186 185 186 186 187 187 186 185 185 188 194 199 200 200 199 198 198
250 246 241 237 234 232 232 233 233 233 233 233 233 234 234 235 235 234 230 225 221 217 214 211 208 205 205 208 211 212 208 205 206 207 204 198 194 186 180 179 178 179 180 184 186 181 165 162 166 173 182 185 184 183 182 183 184 185 184 183 182 181 182 184 186 188 189 188 186 185 185 186 187 188 188 188 187 187 189 196 201 203 203 202 201 200
249 244 239 234 231 228 228 229 229 229 230 230 232 233 234 235 235 234 231 227 223 220 218 216 214 211 208 206 207 206 203 204 205 205 202 198 196 190 182 181 181 180 179 182 181 171 151 157 164 168 172 181 186 187 185 184 184 184 184 184 184 183 183 185 187 189 189 188 186 185 185 186 187 188 189 188 187 188 190 197 203 206 207 206 205 204
245 240 235 231 227 225 224 224 224 224 224 226 228 230 231 232 233 232 230 227 224 221 220 219 219 218 216 214 211 208 206 207 206 204 202 201 199 195 188 187 186 184 182 183 184 180 166 161 165 169 169 173 183 190 189 186 184 184 185 185 185 186 186 187 189 190 189 188 186 184 184 186 188 189 189 189 188 188 191 196 202 206 209 210 209 207
242 236 231 227 223 221 221 221 220 219 219 220 223 225 228 229 230 230 229 227 225 223 221 220 219 220 220 220 219 217 216 214 210 206 204 204 203 200 194 192 191 189 186 185 185 183 174 165 165 169 174 177 180 184 188 187 185 184 186 187 187 187 188 189 190 191 191 189 186 185 185 188 189 190 189 188 186 187 190 195 200 204 207 209 208 207
242 235 229 224 221 220 219 219 217 216 216 216 218 222 225 227 228 228 228 228 227 225 223 221 220 219 219 219 220 221 220 218 213 209 206 206 205 203 199 195 193 193 192 190 187 182 175 169 166 171 181 186 185 182 182 183 184 185 187 188 188 188 189 190 191 192 192 190 188 186 187 189 190 190 188 187 185 186 189 194 197 199 200 202 202 202
245 236 228 221 218 217 218 218 217 216 216 216 218 221 224 226 227 228 228 228 228 227 224 222 220 218 218 217 217 217 218 217 215 212 208 207 206 205 201 197 194 195 195 194 191 186 181 180 181 182 183 185 184 182 181 182 183 184 185 186 188 189 190 190 191 192 193 191 189 187 188 190 191 190 188 187 186 186 188 190 191 191 189 190 191 193
247 238 228 220 217 216 218 219 219 218 216 216 217 219 220 222 223 224 226 226 226 224 222 220 218 217 216 215 215 215 216 216 215 213 210 209 208 206 203 200 197 195 195 194 192 190 188 189 188 186 182 180 179 178 179 182 183 182 179 180 185 190 191 190 191 192 193 192 190 188 189 191 192 191 190 189 188 188 189 189 189 187 185 183 182 183
248 239 229 223 219 218 220 220 220 217 215 213 211 211 212 213 215 217 219 220 219 217 215 214 213 212 212 212 212 212 213 214 213 212 211 211 210 208 204 202 199 196 193 192 191 191 191 191 189 184 181 178 176 175 177 181 183 181 178 179 183 187 188 189 190 192 193 193 192 191 190 191 192 193 193 191 191 191 191 191 190 188 186 186 186 184
250 241 231 224 221 220 220 219 217 213 210 207 204 204 205 207 208 210 211 210 209 208 207 206 204 203 203 204 206 207 208 209 210 211 211 212 212 209 204 202 200 197 193 190 189 191 192 192 188 183 179 176 173 173 176 179 181 182 181 182 181 181 184 188 190 191 191 192 193 193 192 191 192 193 194 192 191 191 192 193 193 192 190 191 192 193
253 243 231 224 220 219 217 214 209 206 203 200 199 200 203 205 207 207 206 204 202 201 201 200 198 195 192 192 194 197 199 200 203 205 208 210 210 208 204 201 200 198 195 189 187 189 191 191 189 186 183 177 173 171 171 174 178 182 183 182 178 173 176 186 189 189 190 191 193 194 193 192 192 193 193 193 191 190 191 193 195 196 196 196 197 199
254 245 234 223 217 212 209 205 201 199 196 195 196 198 201 204 205 204 203 201 200 199 197 195 193 190 187 183 182 184 188 191 195 198 202 205 206 204 202 200 200 199 197 191 187 186 186 187 187 186 182 178 174 172 171 172 176 180 183 182 179 178 180 183 185 185 186 189 192 194 194 193 192 192 193 193 192 192 192 193 195 197 200 201 202 202
254 247 236 219 207 201 198 197 196 195 194 194 195 196 199 201 202 202 200 198 197 195 192 189 185 181 180 178 176 175 177 180 184 189 193 197 199 200 200 199 199 198 197 194 191 187 184 181 180 180 178 175 173 173 172 172 175 178 181 182 183 184 186 185 184 183 184 186 189 192 194 193 192 191 191 193 194 195 196 196 197 199 200 202 203 204
252 244 227 208 197 193 192 193 193 193 193 193 194 195 196 198 198 198 197 196 193 191 189 186 183 181 180 178 174 169 167 169 174 180 184 188 192 195 197 198 198 197 195 193 192 191 188 184 179 174 169 169 171 174 175 174 174 176 179 181 182 183 185 185 184 184 185 185 187 190 193 192 191 191 191 191 193 196 199 200 201 202 203 204 205 205
245 233 211 196 190 189 191 191 191 190 191 192 192 192 193 194 194 194 194 193 191 187 186 185 185 185 181 175 171 168 166 165 166 170 175 180 185 188 191 193 194 194 191 190 189 190 191 189 184 177 170 165 165 170 175 176 176 176 177 179 179 180 181 183 185 186 186 186 186 188 190 190 191 191 191 190 192 195 199 202 204 206 207 207 208 208
236 215 196 189 187 187 187 187 187 188 189 189 189 189 190 191 190 189 188 189 187 184 183 184 185 183 177 174 173 172 170 168 166 166 168 172 176 180 182 183 183 183 182 182 183 183 185 185 184 181 178 174 169 168 171 175 177 178 178 178 178 179 180 183 186 187 187 187 188 188 188 188 188 189 189 188 190 193 197 202 205 208 210 211 211 212
223 201 190 187 186 185 184 184 184 186 186 186 185 185 187 189 189 188 185 184 183 182 182 183 183 179 172 171 172 172 170 168 166 164 164 166 167 169 170 170 169 167 166 167 169 172 174 176 179 181 183 183 179 173 171 174 177 178 179 179 179 179 180 181 184 186 187 188 189 189 189 189 190 190 189 186 188 192 197 201 204 208 210 212 213 214
210 194 188 186 185 184 183 183 183 184 184 184 182 181 182 184 185 185 183 182 181 181 183 183 181 177 171 170 169 169 167 165 163 162 162 163 163 162 161 160 158 154 148 147 150 154 158 164 171 179 184 188 186 180 174 172 174 176 176 178 179 180 179 179 181 184 186 187 188 189 189 190 192 192 191 189 189 193 197 201 205 208 211 213 214 216
199 190 187 185 184 183 182 182 183 183 183 182 180 179 178 179 180 181 180 180 180 182 183 183 181 177 172 170 169 169 167 165 163 162 162 162 161 160 158 157 155 149 141 137 136 138 140 142 154 172 184 188 190 188 182 174 170 170 172 176 179 179 178 177 179 182 185 187 188 188 188 189 191 192 193 192 191 193 198 203 207 209 211 213 215 216